• Join FlightAware (Why Join?)
  • Login
  • US Flag 
10:12PM EST


 

Airport Tracker/Info


-or-


 

Live Flight TrackerFlight Track Log ✈ MPE1528 ✈ 03-Jul-2013 ✈ CYHZ - CYQY

Flight Track Log - Related Links

Times and Time Zones

All times are in EDT time to prevent confusion due to time zone crossing. See the MPE1528 flight status page for this flight to view local times or setup timezone preferences in your user account.

Time Position Orientation Groundspeed Altitude Reporting Facility
EDT Latitude Longitude Course Direction KTS MPH feet Rate Location/Type
06:50AM 44.8833 -63.4833 77° East 160 184 2,700  Level Moncton Center
06:51AM 44.9000 -63.3833 77° East 240 276 4,400 2,400 Climbing Moncton Center
06:52AM 44.9167 -63.2833 77° East 250 288 7,600 2,880 Climbing Moncton Center
06:53AM 44.9333 -63.1667 79° East 310 357 10,200 2,100 Climbing Moncton Center
06:54AM 44.9833 -63.0500 59° Northeast 370 426 11,800 2,160 Climbing Moncton Center
06:55AM 45.0333 -62.9333 59° Northeast 390 449 14,600 2,700 Climbing Moncton Center
06:56AM 45.1000 -62.7833 58° Northeast 400 460 17,300 2,580 Climbing Moncton Center
06:57AM 45.1500 -62.6500 62° Northeast 420 483 19,800 2,700 Climbing Moncton Center
06:58AM 45.2000 -62.5000 65° Northeast 410 472 22,700 2,400 Climbing Moncton Center
06:59AM 45.2500 -62.3500 65° Northeast 410 472 24,600 1,140 Climbing Moncton Center
07:00AM 45.3167 -62.1833 60° Northeast 440 506 25,000 180 Climbing Moncton Center
07:01AM 45.3833 -62.0333 58° Northeast 470 541 25,000 -480 Level Moncton Center
07:02AM 45.4500 -61.8667 60° Northeast 470 541 24,100 -960 Descending Moncton Center
07:03AM 45.5167 -61.7000 60° Northeast 470 541 23,100 -1,500 Descending Moncton Center
07:04AM 45.5667 -61.5500 64° Northeast 460 529 21,200 -1,860 Descending Moncton Center
07:05AM 45.6333 -61.3833 60° Northeast 450 518 19,400 -1,860 Descending Moncton Center
07:06AM 45.6833 -61.2333 64° Northeast 430 495 17,500 -2,400 Descending Moncton Center
07:07AM 45.7333 -61.0833 64° Northeast 410 472 14,700 -2,760 Descending Moncton Center
07:08AM 45.7667 -60.9500 70° East 390 449 12,000 -2,580 Descending Moncton Center
07:09AM 45.8167 -60.8000 64° Northeast 380 437 9,600 -1,560 Descending Moncton Center
07:10AM 45.8500 -60.7000 64° Northeast 330 380 8,900 -1,020 Descending Moncton Center
07:11AM 45.8833 -60.5667 70° East 300 345 7,600 -1,500 Descending Moncton Center
07:12AM 45.9167 -60.4833 60° Northeast 290 334 6,000 -1,200 Descending Moncton Center
07:13AM 45.9500 -60.3833 64° Northeast 280 322 5,200 -780 Descending Moncton Center
07:14AM 45.9833 -60.2833 64° Northeast 250 288 4,500 -780 Descending Moncton Center
07:15AM 46.0167 -60.2333 46° Northeast 210 242 3,700 -960 Descending Moncton Center
07:16AM 46.0500 -60.1833 46° Northeast 200 230 2,600 -1,140 Descending Moncton Center
07:17AM 46.1000 -60.1000 49° Northeast 190 219 1,500 -900 Descending Moncton Center
07:18AM 46.1167 -60.0833 35° Northeast 160 184 800 -720 Descending Moncton Center
07:19AM 46.1500 -60.0167 54° Northeast 140 161 100 -360 Descending Moncton Center
07:20AM 46.1667 -60.0000 35° Northeast 140 161 100  Level Moncton Center